[Date Prev][Date Next][Thread Prev][Thread Next][Date Index][Thread Index]
[jamsat-news:1423] jas2info #211
========================   ºÇ¿·¾ðÊó   ==============================
        Last updated ¡§Fri.19JAN2001 ¡¡16:45 (JST) #211
====================================================================
   
  £±¡Ë¥¢¥Þ¥Á¥å¥¢ÄÌ¿®±ÒÀ±¾ðÊ󡢣ƣϥ·¥ê¡¼¥º¤Îµ°Æ»Í×ÁÇ¡¢¥Æ¥ì¥á¥È¥ê¡¢£Ñ£Ó£Ï¤Î
¡¡¡¡¡¡¾õ¶·Åù¤ò¤Þ¤È¤á¤Æ¤ß¤Þ¤·¤¿¡¥
¡¡¡¡¡¡
¡¡¡¡¡¡£Æ£Ï¡Ý£²£¹¤Î£²£°£°£±Ç¯£±·î£±£¹Æü¡Ê¶â¡Ë¤Î£±£±¡§£²£µ¡Ê£Ê£Ó£Ô¡Ë¤Î¥Ñ¥¹¤Ç¤Ï
¡¡¡¡JARL¥Û¡¼¥à¥Ú¡¼¥¸¤Î¤È¤¦¤ê¥¢¥Ê¥í¥°±¿ÍѤǤ·¤¿¡£
¡¡¡¡º£¤Þ¤Ç´Ñ¬¤·¤¿¥Æ¥ì¥á¥È¥ê¡¼¤ÈʬÀÏ·ë²Ì¤ò·ÇºÜ¤·¤Æ¤ª¤¤Þ¤¹.
¡¡¡¡AS21848C1   19Jan2001
¡¡¡¡11:25-11:27(JST)
¡¡¡¡Freq.435.790MHz
¡¡HI HI AE C7 88 55 00 D4 08 6A 09 79       81 60 92 85 B0 86 AC AB AC AC AE
¡¡HI HI AE C7 88 55 00 D4 08 6A 09 79 8B 6E 76 60 92 8F B0 86 AC AB AC AC AE 
¡¡HI HI AE C7 88 55 00 D4 08 6A 09 79 94 72 72 60 92 90 B0 86 AC AB AC AC AE 
¡¡¡¡AS21847C1    19JAN2001
¡¡¡¡9:31-9:45(JST)
¡¡¡¡Freq.435.806-.786MHz
¡¡HI HI AE C7 88 55 00 D4 08 6A 09 79 58 85 86 60 92 8F B0 7D AF AA B0 B2 AE 
¡¡HI HI AE C7 88 55 00 D4 08 6A 09 79 54 85 89 5F 92 90 B0 86 AF AA B0 B2 AE 
¡¡HI HI AE C7 88 55 00 D4 08 6A 09 79 50 82 88 5F 91 8F B0 79 AE AA B0 B2 AE 
¡¡HI HI AE C7 88 55 00 D4 08 6A 09 79 47 7D 88 5F 91 8F B0 75 AE AA AF B2 AE 
¡¡HI HI AE C7 88 55 00 D4 08 6A 09 79 42 76 86 5F 91 8F B0 70 AE AA B0 B2 AE 
¡¡HI HI AE C7 88 55 00 D4 08 6A 09 79 3E 6D 85 5F 91 8F B0 8C AE AA AF B1 AE 
¡¡HI HI AE C7 88 55 00 D4 08 6A 09 79 3D 63 86 5F 91 8F B0 7B AD A9 AF B1 AE 
¡¡HI HI AE C7 88 55 00 D4 08 6A 09 79 3D 58 83 5F 91 8F B0 7F AD A9 AF B1 AE 
¡¡HI HI AE C7 88 55 00 D4 08 6A 09 79 41 4D 7F 5F 91 8F B0 7F AD A9 AF B1 AE 
¡¡HI HI AE C7 88 55 00 D4 08 6A 09 79 46 42 7D 5F 91 8F B0 75 AD A9 AF B1 AE 
¡¡HI HI AE C7 88 55 00 D4 08 6A 09 79 4D 39 81 5F 91 8F B0 B4 AD A8 AF B1 AE 
¡¡HI HI AE C7 88 55 00 D4 08 6A 09 79 57 31 84 5F 91 8F B0 8D AC A8 AF B1 AE
¡¡HI HI AE C7 88 55 00 D4 08 6A 09 79 5B 2A 83 60 91 8F B0 8F AC A8 AF B0 AE 
¡¡HI HI AE C7 88 55 00 D4 08 6A 09 79 6D 27 82 60 93 90 B0 8F AC A8 AF B0 AE 
¡¡HI HI AE C7 88 55 00 D4 08 6A 09 79 77 25 7F 60 92 90 B0 83 AC A8 AF B0 AE 
¡¡HI HI AE C7 88 55 00 D4 08 6A 09 79 85 26 7A 60 92 90 B0 8E AC A7 AE B0 AE 
¡¡HI HI AE C7 88 55 00 D4 08 6A 09 79 8F 28 72 60 92 90 B0 7B AC A7 AE B0 AE 
¡¡HI HI AE C7 88 55 00 D4 08 6A 09 79 98 2C 6B 60 92 90 B0 7C AC A7 AE B0 AE 
¡¡HI HI AE C7 87 55 00 D4 08 6A 09 79 A0 30 65 60 92 90 B0 7F AC A7 AE B0 AE 
¡¡HI HI AE C7 88 55 00 D4 08 6A 09 79 A6 34 61 60 92 90 B0 86 AC A7 AE B0 AE
¡¡¡¡AS21834C1 18Jan2001
¡¡¡¡10:26-10:38(JST)
¡¡¡¡Freq. -435.788MHz
¡¡HI HI AE C7 88 55 00 D4 6B E7 09 05 96 64 7D 5F 92 8F B0 9A AE AC AF AF AE 
¡¡HI HI AE C7 88 55 00 D4 6B E7 09 05 9A 66 83 5F 91 8F B0 8D AE AC AF AF AE 
¡¡HI HI AE C7 88 55 00 D4 6B E7 09 05 9E 66 88 5F 91 8F B0 7D AE AC AF AF AE 
¡¡HI HI AE C7 88 55 00 D4 6B E7 09 05 A2 66 8E 5F 91 8F B0 7E AE AC AE AF AE 
¡¡HI HI AE C7 88 55 00 D4 6B E7 09 05 A5 63 91 5F 91 8F B0 85 AE AC AE AE AE 
¡¡HI HI AE C7 88 55 00 D4 6B E7 09 05 A6 60 91 5F 91 8F B0 6A AE AC AE AE AE 
¡¡HI HI AE C7 88 55 00 D4 6B E7 09 05 A7 5C 8E 5F 91 8F B0 6E AE AC AD AE AE 
¡¡HI HI AE C7 88 55 00 D4 6B E7 09 05 A6 57 8C 5F 91 8F B0 6F AD AB AD AE AE 
¡¡HI HI AE C7 88 55 00 D4 6B E7 09 05 A3 52 88 60 92 90 B0 73 AD AB AD AE AE 
¡¡HI HI AE C7 88 55 00 D4 6B E7 09 05 9E 4B 83 5F 92 90 B0 76 AD AB AD AE AE 
¡¡HI HI AE C7 88 55 00 D4 C9 6B 09 18 96 47 81 5F 92 90 B0 84 AD AB AC AE AE 
¡¡HI HI AE C7 88 55 00 D4 C9 6B 09 18 8D 43 82 5F 92 90 B0 7D AD AB AC AE AE 
¡¡HI HI AE C7 88 55 00 D4 C9 6B 09 18 83 41 85 5E 92 90 60 6E AD AA AC AD AE 
¡¡¡¡AS21821C1  17Jan2001
¡¡¡¡11:22-:11:31(JST)
¡¡¡¡Freq.435.801-.791MHz
¡¡HI HI AE C7 88 55 00 D4 3A 39 09 71 5B 36 86 5F 91 8F B0 75 B1 AC AF B1 B0 
¡¡HI HI AE C7 88 55 00 D4 3A 39 09 71 57 35 7F 5F 91 8F B0 A2 B1 AC AE B1 B0 
¡¡HI HI AE C7 88 55 00 D4 3A 39 09 71 55 33 7E 5F 92 8F B0 8C B0 AC AE B0 B0 
¡¡HI HI AE C7 88 55 00 D4 3A 39 09 71 53 31 82 5F 91 90 B0 6B B0 AB AE B0 B0 
¡¡HI HI AE C7 88 55 00 D4 3A 39 09 71 52 2E 85 60 91 90 B0 6F B0 AB AE B0 B0 
¡¡HI HI AE C7 88 55 00 D4 3A 39 09 71 51 2B 87 60 91 90 B0 62 B0 AB AD B0 AF 
¡¡HI HI AE C7 88 55 00 D4 3A 39 09 71 52 27 85 5F 92 90 B0 70 B0 AB AD AF AF 
¡¡HI HI AE C7 88 55 00 D4 3A 39 09 71 55 24 83 60 92 90 B0 84 B0 AB AD AF AF 
¡¡HI HI AE C7 88 55 00 D4 3A 39 09 71 57 21 7F 60 92 90 B0 88 B0 AA AD AE AE 
¡¡HI HI AE C7 88 55 00 D4 3A 39 09 71 5A 1E 7A 60 92 90 B0 8D AF AA AD AF AF 
¡¡HI HI AE C7 88 55 09 D4 3A 39 09 71 5E 1D 75 5F 92 90 B0 7C AF AA AD AF AF 
¡¡HI HI AE C7 88 55 00 D4 3A 39 09 71 62 1D 6F 60 92 90 B0 79 AF AA AC AF AF 
¡¡¡¡AS21813C1     16Jan2001
¡¡¡¡19:59-20:05(JST)
¡¡¡¡Freq.435.799-.793MHz
¡¡HI HI AE C7 88 55 00 D4 00 00 09 00 5A A2 00 75 81 8D 86    AD AE AB AA AD 
¡¡HI HI AE 07 88 55 00 D4 00 00 00 00 60 A2 00 77 81 8E 84 85 AD AE AC AA AD
¡¡HI HI AE C7 88 55 0O D4 00 00 00 00 68 A2 00 82 81 89 8C 8A AE AE AC AA AD 
¡¡HI HI AE C7 88 55 00 D4 00 00 00 00 6F A2 00 89 82 81 8C 84 AE AE AC AA AD 
¡¡HI HI AE C7 88 55 00 D4 00 00 00 00 65 A2 00 7B 80 81 8C 8A AE AE AC AB AD 
¡¡HI HI AE 07 88 55 00 D4 00 00 00 00 7D A2 00 88 81 82 8F 71 AE AF AC AB AD 
¡¡HI HI AE C7 88 55 00 D4 00 00 00 00 7E 
¡¡¡¡AS21807C1   16Jan2001
¡¡¡¡10:31-10:42(JST)
¡¡¡¡Freq.435.803-.788MHz
¡¡HI HI AE C7 88 55 00 D4 F4 C9 09 62 5E 90 84 5F 91 8F B0 75 AD AA AC AC AC 
¡¡HI HI AE C7 88 55 00 D4 F4 C9 09 62 53 90 7D 5F 91 8F B0 7A AD AA ED AC AC 
¡¡HI HI AE C7 88 55 00 D4 F4 C9 09 62 49 8F 7A 5F 91 8F B0 7E AD A9 AD AC AC 
¡¡HI HI AE C7 88 55 00 D4 F4 C9 09 62 40 8C 77 60 91 90 B0 84 AD A9 AC AC AC 
¡¡HI HI AE C7 88 55 00 D4 F4 C9 09 62 37 86 75 69 91 8F B0 80 AD A9 AC AC AC 
¡¡HI HI AE C7 88 55 00 D4 F4 C9 09 62 32 79 73 5F 91 8F B0 78 AD A9 AC AC AC 
¡¡HI HI AE C7 88 55 00 D4 F4 C9 09 62 2A 77 6A 5F 91 8F B0 65 AD A9 AC AC AC 
¡¡HI HI AE C7 88 55 00 D4 F4 C9 09 62 26 6E 69 5F 91 8F B0 5E AD A9 AC AC AC 
¡¡HI HI AE C7 88 55 00 D4 F4 C9 09 62 24 64 69 5F 91 8F B0 61 AC A8 AC AC AC 
¡¡HI HI AE C7 88 55 00 D4 F4 C9 09 62 23 5A 6A 5F 91 90 B0 B7 AC A8 AC AC AC 
¡¡HI HI AE C7 88 55 00 D4 F4 C9 09 62 24 50 6B 60 92 8F B0 89 AC A8 AC AC AC 
¡¡HI HI AE C7 88 55 00 D4 F4 C9 09 62 26 46 68 5F 92 8F B0 7C AC A8 AC AC AD 
¡¡HI HI AE C7 88 55 00 D4 F4 C9 09 62 2A 3F 63 60 92 90 B0 85 AC A8 AB AC AC 
¡¡HI HI AE C7 88 55 00 D4 F4 C9 09 62 2E 3A 63 60 91 90 B0 77 AC A8 AB AC AC  
¡¡
¡¡¡¡AS21794C1  15Jan2001
¡¡¡¡11:28-11:33(JST)
¡¡HI HI AE C7 88 55 00 D4 42 51 09 44 6E 94 60 5F 91 8F B0       AA AC AD AE 
¡¡HI HI AE C7 88 55 00 D4 42 51 09 44          5F 91 8F B0 76    AA AC AD AE 
¡¡HI HI AE C7 88 55 00 D4 42 51 09 44          5F 91 8F B0    AE AA AC AD AE 
¡¡HI HI AE C7 88 55 00 D4 42 61 09 44          5F 91 8F B0 7A AE AA AC AD AE 
¡¡HI HI AE C7 88 55 00 D4 42 61 09 44 3A AA 61 5F 91 8F B0 75 AE A9 AC AD AE  
  ¡¡AS21767C1   13Jan2001
  ¡¡11:33-11:37(JST)
                                                               AD AE AA AD
  HI HI AE C7 88 55 00 D4 00 00 00 00 7A 6B    5F 91 8F B0 77 AC AD AE AA AD 
  HI HI AE C7 88 55 00 D4 00 00 00 00 70 A6 6F 5F 91  A B1 8F AC AD AD AA AD 
  HI HI AE C7 88 55 00 D4 00 00 00 00 A9 6C 68 5F 91 8F B0 71 AC AD AD AA AD 
  HI HI AE C7 88 55 00 D4 00 00 00 00 75 5F    5F B0 93 B0 69 AC AD AD AA AD¡¡
¡¡¡¡
¡¡------------------------¡¡£Æ£Ï-£²£¹¤Îµ°Æ»Í×ÁÇ¡¡------------------------------        
 
¡¡¡¡¢£ µ°Æ»Í×ÁÇ£±¡§¡Öjamsat¡Ýkeps¡§£±£°£¶£·¡×¤è¤ê         
¡¡¡¡¡¡¡¡¡¡¡¡¡¡¡¡¡¡¡¡SB KEPS @ AMSAT  $ORB01018.N
¡¡¡¡¡¡¡¡¡¡¡¡¡¡¡¡¡¡¡¡2Line Orbital Elements 01018.AMSAT
¡¡HR AMSAT ORBITAL ELEMENTS FOR AMATEUR SATELLITES IN NASA FORMAT
¡¡FROM WA5QGD FORT WORTH,TX January 18, 2001
¡¡SEND SUBSCRIBE/UNSUBSCRIBE TO majordomo@amsat.org ONLY
¡¡BID: ORB01018.N
¡¡DECODE 2-LINE ELSETS WITH THE FOLLOWING KEY:
¡¡1 AAAAAU 00  0  0 BBBBB.BBBBBBBB  .CCCCCCCC  00000-0  00000-0 0  DDDZ
¡¡2 AAAAA EEE.EEEE FFF.FFFF GGGGGGG HHH.HHHH III.IIII JJ.JJJJJJJJKKKKKZ
¡¡KEY: A-CATALOGNUM B-EPOCHTIME C-DECAY D-ELSETNUM E-INCLINATION F-RAAN
¡¡G-ECCENTRICITY H-ARGPERIGEE I-MNANOM J-MNMOTION K-ORBITNUM Z-CHECKSUM
¡¡¡¡FO-29
¡¡¡¡1 24278U 96046B   01017.76154707  .00000029  00000-0  64420-4 0 03944
¡¡¡¡2 24278 098.5682 263.2144 0351456 031.6468 330.5273 13.52756153218302
 ¢£ µ°Æ»Í×ÁÇ£²¡§¡Öjamsat¡Ýkeps¡§£±£°£¶£¶¡×¤è¤ê                    
¡¡¡¡¡¡¡¡¡¡¡¡¡¡¡¡¡¡SB KEPS @ AMSAT  $ORB01018.O
¡¡¡¡¡¡¡¡¡¡¡¡¡¡¡¡¡¡Orbital Elements  01018.OSCAR
¡¡HR AMSAT ORBITAL ELEMENTS FOR OSCAR SATELLITES
¡¡FROM WA5QGD FORT WORTH,TX January 18, 2001
¡¡SEND SUBSCRIBE/UNSUBSCRIBE TO majordomo@amsat.org ONLY
¡¡BID: ORB01018.O
¡¡TO ALL RADIO AMATEURS BT
  Satellite: FO-29
¡¡Catalog number: 24278
¡¡Epoch time:      01017.76154707
¡¡Element set:    0394
¡¡Inclination:      098.5682 deg
¡¡RA of node:       263.2144 deg
¡¡Eccentricity:    0.0351456
¡¡Arg of perigee:   031.6468 deg
¡¡Mean anomaly:     330.5273 deg
¡¡Mean motion:   13.52756153 rev/day
¡¡Decay rate:        2.9e-07 rev/day^2
¡¡Epoch rev:           21830
¡¡Checksum:              305
¡¡
-------------------¡¡¡¡FO-29¡ÊJAS-2)¤Î¥Æ¥ì¥á¥È¥ê¤Ë´Ø¤¹¤ë¾ðÊó¡¡¡¡----------------------¡¡
¡¡
£²¡Ë¾åµ¥Æ¥ì¥á¥È¥ê¡¼1·î19Æü¤Î¥Æ¥ì¥á¥È¥êºÇ½ª¹Ô¤òʬÀϤ·¤Æ¤ª¤¤Þ¤¹.
¡¡
¡¡¡¡AS21848C1   19Jan2001
¡¡¡¡11:25-11:27(JST)
¡¡¡¡Freq.435.790MHz
¡¡
¡¡HI HI AE C7 88 55 00 D4 08 6A 09 79 94 72 72 60 92 90 B0 86 AC AB AC AC AE 
  ¡¡¡¡¥Æ¥ì¥á¥È¥ê¡¡  Æâ¡¡ÍÆ¡¡ ¡¡¡¡       ´¹»»»»ÃÍ¡¡Ã± °Ì  
¡¡¡¡    £³£Ã	¼§µ¤¥»¥ó¥µ¡¼£Ú¼´	=	72549.0	[nT]	
¡¡¡¡¡¡¡¡£³£Ä	¼§µ¤¥»¥ó¥µ£Ø¼´	=	55882.3	[nT]	
¡¡¡¡¡¡¡¡£´£Á	ÂÀÍÛÅÅÃÓȯÀ¸ÅÅή	=	 1117.7	[mA]	
¡¡¡¡¡¡¡¡£´£Â	£Â½¼ÊüÅÅÅÅή	=	 -118.4	[mA]	
¡¡¡¡¡¡¡¡£´£Ã	£Âü»ÒÅ۵	=	   15.7	[V]	
¡¡¡¡¡¡¡¡£´£Ä	£ÂÃæ´Öü»ÒÅ۵	=	    6.9	[V]	
¡¡¡¡¡¡¡¡£µ£Á	¥Ð¥¹Å۵¡¡¡¡	=	¡¡ 17.3	[V]	
¡¡¡¡¡¡¡¡£µ£Â	£Ê£Ô£ÁÁ÷¿®ÅÅÎÏ	=	  772.9	[mW]	
¡¡¡¡¡¡¡¡£µ£Ã 	¹½Âβ¹ÅÙ£±	=	   15.1	[¡î]	
¡¡¡¡¡¡¡¡£µ£Ä	¹½Âβ¹ÅÙ£²	=	   15.5	[¡î]	
¡¡¡¡¡¡¡¡£¶£Á	¹½Âβ¹ÅÙ£³	=	   15.1	[¡î]	
¡¡¡¡¡¡¡¡£¶£Â	¹½Âβ¹ÅÙ£´	=	   15.1	[¡î]	
¡¡¡¡¡¡¡¡£¶£Ã	£Â¥»¥ë²¹ÅÙ	=	   14.3	[¡î]	
	
 ===========================¡¡¡¡FO-29¡Ê¤Õ¤¸£³¹æ¡Ë¤ÎQSO¾ðÊóÅù¡¡======================
   
